Location: Sungai Bunut
(2.6333°N, 113.7333°E)
Time: 03:10:12
(UTC+00:00)

S-56A Canister/Altair - Pass Details

Date: 06 December 2023
Orbit: 640 x 2488 km, 38.9° (Epoch: 24 February)

Event Time Altitude Azimuth Distance (km) Brightness Sun altitude
Rises 09:21:09 0° 346° (NNW) 3,486 10.8 11.6°
Reaches altitude 10° 09:24:37 10° 8° (N) 2,820 10.2 10.8°
Maximum altitude 09:28:39 16° 45° (NE) 2,732 9.9 9.9°
Drops below altitude 10° 09:33:34 10° 79° (E) 3,580 10.4 8.8°
Sets 09:38:54 0° 98° (E) 4,997 11.2 7.5°
